Regional Weather Roundup
Issued by NWS

Home | Current Version | Previous Version | Graphics & Text | Print | Product List | Glossary On
Versions: 1 2 3 4 5 6 7 8 9 10 11 12 13 14 15 16 17 18 19 20 21 22 23 24 25 26 27 28 29 30 31 32 33 34 35 36 37 38 39 40 41 42 43 44 45 46 47 48 49 50
000
ASUS43 KOAX 202302
RWRNE

WEATHER ROUNDUP FOR NEBRASKA
NATIONAL WEATHER SERVICE OMAHA NE
600 PM CDT SUN MAY 20 2018

NOTES: SATELLITE DATA IS BEING USED TO AUGMENT CLOUD COVER ABOVE
       12000 FEET.
       "FAIR" INDICATES FEW OR NO CLOUDS BELOW 12,000 FEET WITH NO
       SIGNIFICANT WEATHER AND/OR OBSTRUCTIONS TO VISIBILITY.


NEZ001>004-019>022-054>056-210000-
NEBRASKA PANHANDLE

CITY           SKY/WX    TMP DP  RH WIND       PRES   REMARKS
SCOTTSBLUFF    MOSUNNY   63  45  51 SE8       30.11F
ALLIANCE       MOSUNNY   60  35  39 S7        30.11F
CHADRON        CLOUDY    62  40  44 E8        30.11F
GORDON         FAIR      59  36  42 E6        30.12F
KIMBALL        CLOUDY    58  43  58 SE9       30.14S
SIDNEY         CLOUDY    59  41  51 E6        30.14S
$$

NEZ057>060-069>072-079>082-210000-
SOUTHWEST NEBRASKA

CITY           SKY/WX    TMP DP  RH WIND       PRES   REMARKS
NORTH PLATTE   CLOUDY    64  46  52 E5        30.11S
IMPERIAL       CLOUDY    60  46  59 CALM      30.13F
LEXINGTON      CLOUDY    58  52  80 E6        30.12S
MCCOOK         CLOUDY    62  47  57 NE6       30.11F
OGALLALA       MOSUNNY   63  45  51 CALM      30.12F
$$

NEZ005>010-023>029-035>040-094-210000-
NORTH CENTRAL NEBRASKA

CITY           SKY/WX    TMP DP  RH WIND       PRES   REMARKS
VALENTINE      CLOUDY    61  42  49 NE10      30.13F
AINSWORTH      CLOUDY    59  47  64 NE8       30.13S
BROKEN BOW     CLOUDY    59  50  72 NE7       30.10F
O`NEILL        CLOUDY    58  49  71 E7        30.13S
ORD            CLOUDY    56  49  77 NE10      30.11S
THEDFORD       SUNNY     63  38  40 NE7       30.12F
$$

NEZ041-046>049-061>064-073>077-083>087-210000-
SOUTH CENTRAL NEBRASKA

CITY           SKY/WX    TMP DP  RH WIND       PRES   REMARKS
GRAND ISLAND   CLOUDY    56  52  86 NE9       30.12S
AURORA         CLOUDY    53  53  98 N6        30.11S
HASTINGS       CLOUDY    56  52  86 NE10      30.12S
HEBRON         CLOUDY    56  54  91 N7        30.09S
HOLDREGE       CLOUDY    55  52  91 NE9       30.12S
KEARNEY        CLOUDY    56  51  84 NE9       30.12F
YORK           LGT RAIN  54  54 100 N9        30.11F
$$

NEZ011>018-030>034-042>045-210000-
NORTHEAST NEBRASKA

CITY           SKY/WX    TMP DP  RH WIND       PRES   REMARKS
NORFOLK        CLOUDY    53  50  89 N8        30.11S
ALBION         CLOUDY    54  51  89 NE6       30.12S
BLAIR          CLOUDY    55  54  95 N10       30.08F
COLUMBUS       CLOUDY    54  51  90 NE10      30.12S
FREMONT        LGT RAIN  56  54  94 N5        30.10F
TEKAMAH        RAIN      55  54  96 N6        30.10R FOG
WAYNE          RAIN      53  52  97 N8        30.10F
$$

NEZ050>053-065>068-078-088>093-210000-
SOUTHEAST NEBRASKA

CITY           SKY/WX    TMP DP  RH WIND       PRES   REMARKS
LINCOLN        CLOUDY    55  53  93 N8        30.09F
OMAHA EPPLEY   CLOUDY    58  54  86 N13       30.07S
BEATRICE       CLOUDY    58  56  92 N7        30.07S
FALLS CITY     CLOUDY    68  63  84 SE3       30.01F
NEBRASKA CITY  CLOUDY    65  59  80 N8        30.04F
PLATTSMOUTH    CLOUDY    59  55  87 N8        30.06S
$$

NEZ044-045-051>053-067-210000-
OMAHA AREA

CITY           SKY/WX    TMP DP  RH WIND       PRES   REMARKS
OMAHA EPPLEY   CLOUDY    58  54  86 N13       30.07S
BLAIR          CLOUDY    55  54  95 N10       30.08F
FREMONT        LGT RAIN  56  54  94 N5        30.10F
MILLARD        CLOUDY    58  55  91 N7        30.08S
OFFUTT AFB     CLOUDY    59  56  89 N7        30.06S
PLATTSMOUTH    CLOUDY    59  55  87 N8        30.06S
WAHOO          CLOUDY    56  53  89 N10       30.09S
$$




USA.gov is the U.S. government's official web portal to all federal, state and local government web resources and services.